{"data":{"norad_id":67879,"epoch":"2026-05-24T18:33:22.671648Z","epoch_age_seconds":97831,"freshness":"FRESH","line1":"1 67879U 26035A   26144.77317907  .00020127  00000+0  62400-3 0  9997","line2":"2 67879  97.2845  78.2347 0001684  87.9806 272.1630 15.33449143 15646","mean_motion":15.33449143,"eccentricity":0.0001684,"inclination_deg":97.2845,"raan_deg":78.2347,"arg_perigee_deg":87.9806,"mean_anomaly_deg":272.163,"bstar":0.000624,"rev_number":1564,"period_min":93.905950945515,"perigee_km":464.37837418715,"apogee_km":466.68332151831,"semimajor_km":6843.6678478527,"source":"CELESTRAK","updated_at":"2026-05-25T13:38:21.731456Z"}}